Terminal Aerodrome Forecast
Issued by NWS

Home | Current Version | Previous Version | Text Only | Print | Product List | Glossary On
Versions: 1 2 3 4 5 6 7 8 9 10 11 12
000
FTUS45 KABQ 060520
TAFROW
TAF
KROW 060520Z 0606/0706 16007KT P6SM SCT250
     FM061800 16018G28KT P6SM FEW150=

USA.gov is the U.S. government's official web portal to all federal, state and local government web resources and services.